Location: Potawatomi Wildlife Park
(41.2308°N, 86.1050°W)
Time: 17:42:20
(UTC-04:00)

Daily predictions for brighter satellites

Satellite Brightness Start Highest point End
(mag) Time Altitude Azimuth Time Altitude Azimuth Time Altitude Azimuth
Cosmos 1553 Rocket 4.3 21:47:39 10° N 21:54:02 74° W 22:00:18 10° S
ATLAS CENTAUR R/B 4.1 21:53:03 10° W 21:55:02 13° WSW 21:56:58 10° SW
Cosmos 2315 Rocket 4.5 21:52:45 10° N 21:58:39 44° ENE 22:04:31 10° SSE
Cosmos 1726 3.9 21:58:14 10° NNE 22:00:53 18° ENE 22:03:30 10° ESE
NOSS 3-1 (C) 3.7 21:55:36 10° S 22:01:03 43° ESE 22:07:01 10° NE
SL-23 DEB 4.3 21:55:28 10° NW 22:01:17 71° NNE 22:04:51 10° ESE
Cosmos 2112 Rocket 4.2 21:57:45 10° NNW 22:02:57 61° ENE 22:08:09 10° SSE
OAO 2 Rocket 4.4 21:58:49 10° SW 22:03:16 28° SSE 22:07:45 10° ESE
OTV 4 2.6 22:02:40 10° SSE 22:03:21 11° SSE 22:04:01 10° SE
CZ-4 SHROUD 4.2 22:02:16 10° SE 22:05:05 31° ENE 22:07:55 10° N
ALOS 4.0 22:03:15 10° SSW 22:07:24 31° W 22:11:35 10° NNW
H-2A R/B 2.2 22:03:34 10° SSE 22:08:06 85° ENE 22:12:38 10° NNW
Cosmos 1707 Rocket 4.5 22:05:34 10° NNE 22:09:30 32° ENE 22:13:15 11° SE
Tiangong 1 1.4 22:11:35 10° SW 22:14:33 43° SSE 22:17:32 10° E
Cosmos 1328 3.8 22:10:57 10° S 22:14:49 61° E 22:18:44 10° NNE
Cosmos 2219 3.2 22:09:31 10° S 22:15:12 66° ESE 22:20:55 10° NNE
Meteor 1-4 Rocket 4.3 22:16:04 10° NNE 22:18:55 20° ENE 22:21:09 13° ESE
Cosmos 2237 Rocket 3.8 22:16:12 10° N 22:20:35 22° NE 22:24:55 10° ESE
Cosmos 2322 Rocket 4.3 22:18:40 10° NW 22:22:56 23° W 22:27:12 10° SSW
DELTA 2 R/B (1) 4.2 22:19:06 10° W 22:24:18 42° SSW 22:28:40 14° SE
Cosmos 2322 4.1 22:18:50 10° NNW 22:24:31 66° WSW 22:30:09 10° S
Cosmos 1271 Rocket 4.2 22:23:09 10° NNE 22:26:17 23° ENE 22:28:32 15° ESE
Aureole 3 4.3 22:22:05 10° S 22:28:41 83° E 22:33:54 10° N
MetOp-B 4.2 22:23:58 11° SSE 22:29:07 67° ENE 22:34:27 10° N
CZ-4B R/B 3.9 22:25:52 10° NNE 22:30:56 46° E 22:35:53 10° S
Cosmos 2360 Rocket 2.8 22:26:00 10° NNW 22:31:32 55° WSW 22:37:01 10° S
Cosmos 405 4.4 22:30:00 10° NNW 22:33:23 37° W 22:36:44 10° SSW
Cosmos 1703 4.5 22:32:27 17° SE 22:34:27 25° E 22:37:41 10° NE
SL-14 R/B 3.6 22:31:35 12° SSE 22:35:02 47° E 22:38:55 10° NNE
SL-16 R/B 4.5 22:31:14 10° NW 22:35:09 19° W 22:39:04 10° SW
Nadezhda 2 Rocket 4.5 22:30:08 10° S 22:36:17 88° E 22:42:25 10° N
Meteor 1-27 4.3 22:32:51 10° N 22:38:33 69° E 22:43:18 15° SSE
Cosmos 1680 Rocket 4.1 22:33:58 10° NNW 22:39:05 54° WSW 22:44:11 10° S
H-2A R/B 3.4 22:36:57 14° ESE 22:40:31 27° ENE 22:45:01 10° N
PSLV R/B 3.4 22:38:58 15° S 22:41:26 67° W 22:44:29 10° NNW
Cosmos 1626 4.0 22:41:26 15° E 22:42:11 15° E 22:44:26 10° NE
SPOT 5 3.1 22:41:59 11° S 22:46:25 65° WSW 22:51:16 10° NNW
Delta 2 Rocket 3.8 22:44:16 10° WSW 22:47:31 31° S 22:48:40 25° SSE
Cosmos 2151 4.2 22:46:32 10° SSW 22:50:32 41° WNW 22:54:32 10° N
Cosmos 1898 Rocket 3.4 22:46:19 10° S 22:51:27 73° ESE 22:56:40 10° NNE
YAOGAN 6 2.6 22:50:10 19° S 22:52:40 83° WSW 22:56:17 10° NNW
SPOT 1/Viking Rocket 3.5 22:48:49 17° SSE 22:52:46 77° ENE 22:57:56 10° N
Lacrosse 4 Rocket 3.9 22:53:09 10° NNE 22:55:29 14° NE 22:57:49 10° ENE
Cosmos 858 Rocket 4.4 22:50:37 10° S 22:55:48 72° ESE 23:01:00 10° NNE
Cosmos 2227 Rocket 2.7 22:55:43 17° SSE 22:59:34 39° ESE 23:04:48 10° NE
Cosmos 2058 3.6 22:56:08 10° SSW 23:00:08 53° W 23:04:10 10° N
Cosmos 1300 3.1 22:57:17 10° NNW 23:01:06 61° W 23:03:49 18° S
Cosmos 2150 Rocket 4.1 22:56:21 10° SSW 23:01:48 89° WNW 23:07:19 10° NNE
NOSS 3-1 (A) 3.4 22:59:35 10° SW 23:05:28 87° NW 23:12:02 10° NE
Cosmos 292 Rocket 3.7 23:01:14 10° NNW 23:06:02 78° ENE 23:08:40 26° SSE
Meteor 1-11 4.5 23:00:38 10° SSW 23:06:23 73° W 23:12:07 10° N
Cosmos 2242 Rocket 3.5 23:02:14 10° N 23:06:45 80° E 23:09:20 25° SSE
Sich 1 3.1 23:03:04 13° S 23:07:02 80° W 23:11:28 10° N
Cosmos 1862 Rocket 4.3 23:04:26 10° N 23:08:28 36° ENE 23:10:03 27° ESE
CARTOSAT-1 4.3 23:08:07 26° ESE 23:09:56 38° ENE 23:13:56 10° N
COSMOS 2455 4.1 23:04:46 10° NNW 23:10:01 30° NE 23:14:03 15° ESE
Cosmos 1633 Rocket 3.2 23:08:23 14° SSW 23:12:08 74° W 23:16:31 10° N
Landsat 7 4.0 23:10:19 27° SE 23:12:46 60° ENE 23:17:28 10° N
SL-16 R/B 3.6 23:10:10 10° N 23:14:54 26° NE 23:18:12 16° E
USA 245 3.2 23:15:30 33° SW 23:16:00 38° W 23:18:11 10° NNW
Cosmos 2333 Rocket 2.4 23:10:33 10° NNW 23:16:17 64° ENE 23:19:24 27° SE
Cosmos 1346 3.3 23:20:05 49° ESE 23:20:09 50° E 23:23:06 10° NNE
FALCON 9 R/B 4.1 22:51:19 10° W 23:21:08 64° S 23:27:16 17° ESE
Cosmos 1455 2.5 23:19:49 10° N 23:23:33 50° E 23:24:28 40° SE
BREEZE-M DEB (TANK) 3.4 23:22:13 10° NW 23:24:07 31° NNE 23:25:19 21° ENE
ARGOS 3.4 23:22:16 22° S 23:25:49 65° WSW 23:31:11 10° NNW
Cosmos 2297 Rocket 2.5 23:23:48 28° SSE 23:26:22 46° ESE 23:31:45 10° NE
ERBS 2.2 23:23:06 10° SW 23:26:36 79° SE 23:30:05 10° NE
DELTA 2 DEB (DPAF) 4.1 23:25:18 33° SSE 23:27:20 89° WSW 23:31:51 10° NNW
ATLAS 2AS CENTAUR R/B 3.0 23:20:30 10° SSW 23:27:43 59° ESE 23:35:34 10° NE
COSMOS 2428 3.7 23:22:39 10° NW 23:27:54 39° WSW 23:31:38 18° SSW
Terra 2.0 23:26:42 33° SE 23:28:38 60° ENE 23:33:20 10° N
DMSP B5D2-2 4.2 23:26:46 10° NNE 23:31:55 57° E 23:34:06 33° SSE
Cosmos 2219 Rocket 2.2 23:26:20 10° NNW 23:31:56 74° WSW 23:34:43 31° S
USA 32 4.3 23:28:51 10° N 23:34:04 64° W 23:37:17 23° SSW
Spot 4 4.1 23:34:28 35° SE 23:36:15 56° ENE 23:41:01 10° N
Cosmos 1726 3.9 23:33:00 10° NNW 23:36:16 28° W 23:38:27 16° SW
IGS 5A 3.5 23:36:25 44° SE 23:37:34 66° ENE 23:41:44 10° N
SL-08 RB Rocket 4.4 23:38:56 26° SSW 23:41:08 47° W 23:45:30 10° NNW
ATLAS 3B R/B 3.2 23:34:36 10° NNW 23:41:28 51° NE 23:45:17 25° ESE
OAO 2 Rocket 3.7 23:42:34 10° WSW 23:47:34 43° S 23:48:06 41° SSE
Cosmos 1937 Rocket 4.4 23:43:41 10° SW 23:48:44 48° WNW 23:53:47 10° N
Cosmos 1869 3.2 23:45:43 10° N 23:49:47 88° E 23:50:34 57° S
Tiangong 1 1.3 23:48:01 10° W 23:51:01 67° NNW 23:51:01 67° NNW
Cosmos 1980 3.8 23:47:10 10° NNW 23:52:48 70° WSW 23:55:01 37° S
